View from above orbital plane
|
View from above satellite
|
Ground track
|
The orbit data is extracted from the following two-line orbital elements,
1 26621U 00075C 21023.38774051 .00000650 00000-0 61317-3 0 9994
2 26621 95.3943 172.6592 0710829 288.4953 64.0230 13.04212001959866
Epoch (UTC): | 23 January 2021 09:18:20 |
Eccentricity: | 0.0710829 |
inclination: | 95.3943° |
perigee height: | 704 km |
apogee height: | 1787 km |
right ascension of ascending node: | 172.6592° |
argument of perigee: | 288.4953° |
revolutions per day: | 13.04212001 |
mean anomaly at epoch: | 64.0230° |
orbit number at epoch: | 95986 |
The dashed part of the orbit path shows where the satellite is in the earth's shadow,
|
|